This is the latest recevied weather packets stored in our database for station/object WB4FAY-4. If no packets are shown the sender has not sent any weather packets the latest 10 day(s).
| Time | Temp. | Humidity | Pressure | Rain* | Wind** | Luminosity | Snow |
|---|---|---|---|---|---|---|---|
| 1777504818 | 25.56° C | 80% | 1010.9 hPa | 48.01 mm | - | - | - |
| 1777504517 | 25° C | 79% | 1010.7 hPa | 48.01 mm | - | - | - |
| 1777504218 | 25° C | 79% | 1010.6 hPa | 48.01 mm | - | - | - |
| 1777503917 | 25° C | 79% | 1010.7 hPa | 48.01 mm | - | - | - |
| 1777503617 | 25.56° C | 80% | 1011 hPa | 48.01 mm | - | - | - |
| 1777503318 | 25.56° C | 80% | 1011.4 hPa | 48.01 mm | - | - | - |
| 1777503017 | 25.56° C | 80% | 1011.5 hPa | 48.01 mm | - | - | - |
| 1777502717 | 25.56° C | 79% | 1011.4 hPa | 48.01 mm | - | - | - |
| 1777502418 | 25.56° C | 79% | 1011.2 hPa | 48.01 mm | - | - | - |
| 1777502117 | 25.56° C | 78% | 1010.8 hPa | 48.01 mm | - | - | - |
| 1777501817 | 25.56° C | 77% | 1010.9 hPa | 48.01 mm | - | - | - |
| 1777501517 | 25.56° C | 77% | 1011.1 hPa | 48.01 mm | - | - | - |
| 1777501217 | 25.56° C | 76% | 1011.1 hPa | 48.01 mm | - | - | - |
| 1777500918 | 26.11° C | 77% | 1011.2 hPa | 48.01 mm | - | - | - |
| 1777500617 | 25.56° C | 76% | 1011.3 hPa | 48.01 mm | - | - | - |
| 1777500323 | 25.56° C | 75% | 1011.4 hPa | 48.01 mm | - | - | - |
| 1777500017 | 25.56° C | 74% | 1011.5 hPa | 48.01 mm | - | - | - |
| 1777499717 | 26.11° C | 74% | 1011.5 hPa | 48.01 mm | - | - | - |
| 1777499418 | 26.11° C | 74% | 1011.8 hPa | 48.01 mm | - | - | - |
| 1777499117 | 26.11° C | 75% | 1011.8 hPa | 48.01 mm | - | - | - |
| 1777498817 | 26.11° C | 74% | 1011.7 hPa | 48.01 mm | - | - | - |
| 1777498517 | 26.11° C | 73% | 1011.4 hPa | 48.01 mm | - | - | - |
| 1777498218 | 26.67° C | 73% | 1011.4 hPa | 48.01 mm | - | - | - |
| 1777497917 | 26.67° C | 71% | 1011.6 hPa | 48.01 mm | - | - | - |
| 1777497617 | 26.67° C | 70% | 1011.7 hPa | 48.01 mm | - | - | - |
* Rain latest 24 hours (hover to see other rain measurements)
** Current wind speed in m/s (hover to see current wind gust speed)